星链-30194 (STARLINK-30194 )

导读 | 星芒AI

STARLINK-30194 是 SpaceX Starlink 项目中的一颗低轨通信卫星,属于第三代 Starlink 卫星(v1.5 或 v2 版本)。它于 2023 年发射,部署在约 550 公里的轨道高度,旨在为全球提供高速互联网服务。该卫星采用先进的推进系统和激光通信技术,提高网络效率与稳定性。作为 Starlink 卫星群的一部分,它有助于扩大覆盖范围,特别是在偏远和网络基础设施薄弱的地区。

基本信息
目录编号:
57308
目录名称:
STARLINK-30194
国际标识:
2023-096U
轨道中心:
EARTH
卫星名称:
星链-30194
卫星全名:
星链-30194 (STARLINK-30194 )
卫星状态:
已陨落 最后检测时间 2025-09-01
发射日期:
2023-07-10 UTC
国别 :
美国 (US)
星等 :
--
轨道信息
数据来源 国际轨道数据
星历时间: 2025-09-01T10:31:21+0800
轨道信息已过期59天
半长轴: 6604.489km
偏心率: 0.0023838
轨道倾角: 42.967°
近地点辐角 256.311°
升交点赤经 113.513°
平近点角 103.512°
近地点: 210.61km
远地点: 242.098km
周期: 89.026分钟
每日圈数: 16.174987
详细信息
固有亮度:
5
最大亮度:
0.3
卫星平台:
Starlink v2.0 mini
覆盖范围:
全球
运营商:
太空探索技术公司
运营商所在国:
美国
制造商(研发单位):
太空探索技术公司
制造商所在国:
美国
使用方式:
暂无
卫星简介
星链(Starlink)计划是由太空探索技术公司(SpaceX)提出的一个巨型低轨卫星互联网星座项目,计划在2019年至2024年间在太空搭建由约1.2万颗卫星组成的“星链”网络,其中1584颗将部署在地球上空550千米处的近地轨道,并从2020年开始工作。该卫星仍在工作。